Location: Unspecified
(44.4377°N, 88.0525°W)
Time: 07:26:11
(UTC-05:00)

CZ-3 Stage 3 - Visible Passes

Search period start: 02 October 2014 00:00
Search period end: 12 October 2014 00:00
Orbit: 411 x 34832 km, 30.8° (Epoch: 02 October)

Date Brightness Start Highest point End Pass type
(mag) Time Alt. Az. Time Alt. Az. Time Alt. Az.
02 Oct 9.0 00:00:00 11° ESE 00:05:46 11° ESE 00:25:42 10° ESE visible
03 Oct 6.6 00:52:58 10° S 08:08:23 52° S 08:18:11 10° ESE visible
03 Oct 8.2 22:39:11 10° SSE 04:08:00 44° SSE 04:41:46 10° E visible
04 Oct 8.9 23:11:48 10° ESE 00:02:41 13° ESE 00:34:21 10° E visible
06 Oct 6.5 00:46:11 10° SSW 08:05:33 52° S 08:15:07 10° ESE visible
06 Oct 8.2 22:24:33 10° SSE 04:05:59 45° SSE 04:38:56 10° E visible
07 Oct 8.8 22:49:23 10° ESE 23:59:25 15° ESE 00:37:32 10° E visible
09 Oct 6.4 00:39:29 10° SSW 08:02:30 52° S 08:11:53 10° ESE visible
09 Oct 8.1 22:10:08 10° SSE 04:03:44 47° SSE 04:35:52 10° E visible
10 Oct 8.7 22:29:05 10° ESE 23:55:57 17° ESE 00:38:30 10° E visible
